Location: P�rn�nmaa
(61.1833°N, 23.0000°E)
Time: 18:37:50
(UTC+00:00)

METEOR-M - Pass Details

Date: 08 December 2019
Orbit: 817 x 819 km, 98.4° (Epoch: 17 January)

Event Time Altitude Azimuth Distance (km) Brightness Sun altitude
Rises 14:29:48 0° 162° (SSE) 3,339 7.5 -7.7°
Reaches altitude 10° 14:32:08 10° 164° (SSE) 2,411 6.8 -7.9°
Maximum altitude 14:37:30 82° 252° (WSW) 835 4.3 -8.4°
Drops below altitude 10° 14:42:53 10° 341° (NNW) 2,427 6.5 -9.0°
Sets 14:45:15 0° 342° (NNW) 3,363 7.2 -9.2°
